Date String (YYYY-MM-DD hh:mm:ss) UTC,Instrument flags,absolute air pressure of the measurement (hPa),sample flow rate (lpm),inlet stack bypass flow (lpm),air temperature of the measurement (°C),ambient temperature measured by the external sensor (°C),aerosol sample conditioner tube jacket temperature (°C),OPC LED temperature (°C),internal box temperature (°C),relative humidity of the measurement (%),span deviation,mass concentration of particles derived from Lorenz-Mie calculation of OPC scattering (μg/m³),mass concentration of particles derived from Lorenz-Mie calculation of OPC scattering (μg/m³),mass concentration of particles derived from Lorenz-Mie calculation of OPC scattering (μg/m³)
DateTimeUTC,F1_M11,P_M11,Q1_M11,Q2_M11,T1_M11,T2_M11,T3_M11,T4_M11,T5_M11,U1_M11,ZSPAN_M11,X0_M11,X2_M11,X1_M11
2024-04-04 18:00:00,SystemResetWarning,0826.4,5.00,000.00,024.8,024.3,000.0,033.1,026.6,015.2,0000.0,0009.76,0003.15,0002.35
2024-04-04 18:01:00,SystemResetWarning,0826.3,4.99,000.00,024.8,024.3,000.0,033.1,026.6,015.0,0000.0,0009.78,0003.18,0002.37
2024-04-04 18:02:00,SystemResetWarning,0826.3,5.00,000.00,024.8,024.3,000.0,033.1,026.6,015.3,0000.0,0009.90,0003.18,0002.37
2024-04-04 18:03:00,SystemResetWarning,0826.3,5.00,000.00,024.8,024.3,000.0,033.1,026.7,015.7,0000.0,0009.60,0003.19,0002.39
2024-04-04 18:04:00,SystemResetWarning,0826.3,5.00,000.00,024.9,024.3,000.0,033.1,026.7,015.3,0000.0,0009.36,0003.21,0002.41
2024-04-04 18:05:00,SystemResetWarning,0826.3,5.00,000.00,024.9,024.3,000.0,033.2,026.7,015.5,0000.0,0008.81,0003.23,0002.43
2024-04-04 18:06:00,SystemResetWarning,0826.3,5.01,000.00,024.9,024.3,000.0,033.2,026.7,015.2,0000.0,0009.03,0003.25,0002.44
2024-04-04 18:07:00,SystemResetWarning,0826.2,5.00,000.00,024.9,024.4,000.0,033.2,026.7,015.0,0000.0,0009.71,0003.28,0002.44
2024-04-04 18:08:00,SystemResetWarning,0826.2,4.99,000.00,024.9,024.4,000.0,033.2,026.7,015.2,0000.0,0009.54,0003.26,0002.44
2024-04-04 18:09:00,SystemResetWarning,0826.2,4.99,000.00,024.9,024.4,000.0,033.2,026.7,015.1,0000.0,0009.98,0003.29,0002.44
2024-04-04 18:10:00,SystemResetWarning,0826.2,5.00,000.00,025.0,024.4,000.0,033.2,026.8,015.1,0000.0,0009.88,0003.31,0002.43
2024-04-04 18:11:00,SystemResetWarning,0826.2,5.01,000.00,025.0,024.4,000.0,033.3,026.8,014.9,0000.0,0010.45,0003.32,0002.42
2024-04-04 18:12:00,SystemResetWarning,0826.2,5.00,000.00,025.0,024.5,000.0,033.3,026.8,015.8,0000.0,0010.77,0003.30,0002.40
2024-04-04 18:13:00,SystemResetWarning,0826.2,5.01,000.00,025.0,024.5,000.0,033.3,026.8,015.4,0000.0,0010.73,0003.28,0002.37
2024-04-04 18:14:00,SystemResetWarning,0826.2,4.99,000.00,025.0,024.5,000.0,033.3,026.8,015.2,0000.0,0010.83,0003.29,0002.35
2024-04-04 18:15:00,SystemResetWarning,0826.2,5.00,000.00,025.0,024.5,000.0,033.3,026.8,015.2,0000.0,0010.87,0003.31,0002.34
2024-04-04 18:16:00,SystemResetWarning,0826.2,5.00,000.00,025.0,024.5,000.0,033.3,026.9,015.0,0000.0,0010.81,0003.30,0002.32
2024-04-04 18:17:00,SystemResetWarning,0826.1,5.01,000.00,025.1,024.5,000.0,033.4,026.9,014.1,0000.0,0010.70,0003.30,0002.31
2024-04-04 18:18:00,SystemResetWarning,0826.1,5.01,000.00,025.1,024.5,000.0,033.4,026.9,014.1,0000.0,0010.00,0003.26,0002.27
2024-04-04 18:19:00,SystemResetWarning,0826.0,5.00,000.00,025.1,024.6,000.0,033.4,026.9,014.5,0000.0,0009.17,0003.21,0002.23
2024-04-04 18:20:00,SystemResetWarning,0826.0,5.00,000.00,025.1,024.6,000.0,033.4,026.9,013.5,0000.0,0009.22,0003.16,0002.20
2024-04-04 18:21:00,SystemResetWarning,0825.9,5.00,000.00,025.1,024.6,000.0,033.4,026.9,013.8,0000.0,0009.94,0003.15,0002.17
2024-04-04 18:22:00,SystemResetWarning,0825.9,5.00,000.00,025.1,024.6,000.0,033.4,027.0,014.1,0000.0,0008.95,0003.11,0002.13
2024-04-04 18:23:00,SystemResetWarning,0825.9,5.00,000.00,025.2,024.6,000.0,033.5,027.0,012.6,0000.0,0008.47,0003.09,0002.11
2024-04-04 18:24:00,SystemResetWarning,0826.0,5.00,000.00,025.2,024.6,000.0,033.5,027.0,012.1,0000.0,0008.27,0003.07,0002.10
2024-04-04 18:25:00,SystemResetWarning,0825.9,5.00,000.00,025.2,024.7,000.0,033.5,027.0,012.2,0000.0,0008.42,0003.01,0002.07
2024-04-04 18:26:00,SystemResetWarning,0825.9,5.00,000.00,025.2,024.7,000.0,033.5,027.0,011.9,0000.0,0008.79,0002.95,0002.04
2024-04-04 18:27:00,SystemResetWarning,0825.9,5.00,000.00,025.2,024.7,000.0,033.5,027.0,011.8,0000.0,0008.76,0002.92,0002.02
2024-04-04 18:28:00,SystemResetWarning,0825.9,5.00,000.00,025.2,024.7,000.0,033.5,027.0,012.1,0000.0,0009.56,0002.93,0001.99
2024-04-04 18:29:00,SystemResetWarning,0825.9,5.00,000.00,025.3,024.7,000.0,033.6,027.1,012.3,0000.0,0009.74,0002.89,0001.96
2024-04-04 18:30:00,SystemResetWarning,0825.9,5.00,000.00,025.3,024.7,000.0,033.6,027.1,012.9,0000.0,0010.64,0002.93,0001.96
2024-04-04 18:31:00,SystemResetWarning,0825.9,5.00,000.00,025.3,024.7,000.0,033.6,027.1,012.3,0000.0,0009.85,0002.96,0001.95
2024-04-04 18:32:00,SystemResetWarning,0825.9,5.00,000.00,025.3,024.8,000.0,033.6,027.1,012.3,0000.0,0008.70,0002.91,0001.93
2024-04-04 18:33:00,SystemResetWarning,0825.9,5.00,000.00,025.3,024.8,000.0,033.6,027.1,012.5,0000.0,0008.67,0002.81,0001.91
2024-04-04 18:34:00,SystemResetWarning,0825.8,5.00,000.00,025.3,024.8,000.0,033.6,027.2,012.5,0000.0,0008.72,0002.77,0001.89
2024-04-04 18:35:00,SystemResetWarning,0825.8,5.00,000.00,025.3,024.8,000.0,033.7,027.2,012.7,0000.0,0008.92,0002.80,0001.88
2024-04-04 18:36:00,SystemResetWarning,0825.8,5.00,000.00,025.4,024.8,000.0,033.7,027.2,012.9,0000.0,0008.85,0002.79,0001.88
2024-04-04 18:37:00,SystemResetWarning,0825.8,5.00,000.00,025.4,024.8,000.0,033.7,027.2,012.3,0000.0,0008.59,0002.77,0001.89
2024-04-04 18:38:00,SystemResetWarning,0825.8,5.00,000.00,025.4,024.9,000.0,033.7,027.2,012.5,0000.0,0008.66,0002.71,0001.88
2024-04-04 18:39:00,SystemResetWarning,0825.8,5.00,000.00,025.4,024.9,000.0,033.7,027.2,012.3,0000.0,0008.17,0002.69,0001.87
2024-04-04 18:40:00,SystemResetWarning,0825.7,5.00,000.00,025.4,024.9,000.0,033.7,027.3,012.0,0000.0,0007.96,0002.74,0001.88
2024-04-04 18:41:00,SystemResetWarning,0825.7,5.00,000.00,025.5,024.9,000.0,033.8,027.3,011.5,0000.0,0007.36,0002.73,0001.85
2024-04-04 18:42:00,SystemResetWarning,0825.7,5.00,000.00,025.5,024.9,000.0,033.8,027.3,011.4,0000.0,0007.32,0002.73,0001.85
2024-04-04 18:43:00,SystemResetWarning,0825.7,5.01,000.00,025.5,024.9,000.0,033.8,027.3,011.5,0000.0,0007.30,0002.74,0001.85
2024-04-04 18:44:00,SystemResetWarning,0825.7,5.00,000.00,025.5,024.9,000.0,033.8,027.3,011.8,0000.0,0007.60,0002.77,0001.85
2024-04-04 18:45:00,SystemResetWarning,0825.6,5.01,000.00,025.5,024.9,000.0,033.8,027.3,011.5,0000.0,0008.17,0002.85,0001.86
2024-04-04 18:46:00,SystemResetWarning,0825.6,4.99,000.00,025.5,024.9,000.0,033.8,027.3,011.6,0000.0,0008.15,0002.87,0001.85
2024-04-04 18:47:00,SystemResetWarning,0825.6,4.99,000.00,025.5,025.0,000.0,033.8,027.3,011.3,0000.0,0007.77,0002.82,0001.84
2024-04-04 18:48:00,SystemResetWarning,0825.6,5.00,000.00,025.6,025.0,000.0,033.9,027.4,011.6,0000.0,0007.88,0002.83,0001.83
2024-04-04 18:49:00,SystemResetWarning,0825.6,5.01,000.00,025.6,025.0,000.0,033.9,027.4,011.4,0000.0,0007.54,0002.81,0001.82
2024-04-04 18:50:00,SystemResetWarning,0825.6,5.01,000.00,025.6,025.0,000.0,033.9,027.4,011.9,0000.0,0007.54,0002.79,0001.82
2024-04-04 18:51:00,SystemResetWarning,0825.6,5.00,000.00,025.6,025.0,000.0,033.9,027.4,011.2,0000.0,0008.16,0002.80,0001.83
2024-04-04 18:52:00,SystemResetWarning,0825.6,5.00,000.00,025.6,025.0,000.0,033.9,027.4,011.0,0000.0,0008.30,0002.78,0001.82
2024-04-04 18:53:00,SystemResetWarning,0825.6,5.00,000.00,025.6,025.1,000.0,033.9,027.4,011.0,0000.0,0009.07,0002.76,0001.82
2024-04-04 18:54:00,SystemResetWarning,0825.5,5.00,000.00,025.6,025.1,000.0,034.0,027.4,011.0,0000.0,0009.79,0002.76,0001.82
2024-04-04 18:55:00,SystemResetWarning,0825.5,5.00,000.00,025.7,025.1,000.0,034.0,027.5,010.9,0000.0,0009.80,0002.72,0001.82
2024-04-04 18:56:00,SystemResetWarning,0825.5,4.99,000.00,025.7,025.1,000.0,034.0,027.5,011.5,0000.0,0009.34,0002.66,0001.81
2024-04-04 18:57:00,SystemResetWarning,0825.5,4.99,000.00,025.7,025.1,000.0,034.0,027.5,011.3,0000.0,0010.70,0002.65,0001.81
2024-04-04 18:58:00,SystemResetWarning,0825.5,4.99,000.00,025.7,025.1,000.0,034.0,027.5,011.4,0000.0,0011.33,0002.67,0001.83
2024-04-04 18:59:00,SystemResetWarning,0825.5,5.00,000.00,025.7,025.1,000.0,034.0,027.5,011.1,0000.0,0011.68,0002.68,0001.83
